Regional Weather Roundup
Issued by NWS

Home | Current Version | Previous Version | Text Only | Print | Product List | Glossary Off
Versions: 1 2 3 4 5 6 7 8 9 10 11 12 13 14 15 16 17 18 19 20 21 22 23 24 25 26 27 28 29 30 31 32 33 34 35 36 37 38 39 40 41 42 43 44 45 46 47 48 49 50

000
ASUS43 KDTX 162301
RWRMI
MICHIGAN HOURLY REGIONAL WEATHER ROUNDUP
NATIONAL WEATHER SERVICE DETROIT/PONTIAC MI
700 PM EDT WED AUG 16 2017

NOTE: "FAIR" INDICATES FEW OR NO CLOUDS BELOW 12,000 FEET WITH NO
SIGNIFICANT WEATHER AND/OR OBSTRUCTION TO VISIBILITY.

MIZ047>049-052>055-059>063-066>070-074>076-081>083-170000-
SOUTHEAST LOWER MICHIGAN

CITY           SKY/WX    TMP DP  RH WIND       PRES   REMARKS
ADRIAN         SUNNY     81  61  50 SE9       29.99S
ALMA           SUNNY     81  62  52 SE7       29.97S
ANN ARBOR      SUNNY     80  61  52 SE9       29.99S
BAD AXE        MOSUNNY   74  55  51 E5        30.03F
CARO           SUNNY     78  60  54 E9        29.99F
DETROIT CITY   SUNNY     79  61  53 E10       30.00F
DETROIT        MOSUNNY   81  59  47 SE9       29.99F
FLINT          SUNNY     80  60  50 SE10      29.98F
GROSSE ILE     SUNNY     78  58  48 E8        29.98F
HILLSDALE      SUNNY     82  63  51 SE6       29.98S
HOWELL         SUNNY     82  60  46 SE8       29.99S

CITY           SKY/WX    TMP DP  RH WIND       PRES   REMARKS
JACKSON          N/A     83  64  52 E13       29.98R
LAMBERTVILLE   SUNNY     77  61  56 E8        29.98F
LANSING        PTSUNNY   83  62  49 SE8       29.97S
LAPEER         FAIR      78  59  51 SE6       30.01F
MASON          SUNNY     82  64  54 SE6       29.97S
MONROE         SUNNY     77  60  55 E9G16     29.99S
PORT HOPE        N/A     71  62  73 E12       30.02F
PORT HURON     SUNNY     77  61  57 N7        30.01F
TRI CITIES     SUNNY     80  67  64 E7        29.98F
MIDLAND        FAIR      77  64  64 E12       29.98S
TROY           SUNNY     80  58  46 SE7       30.02S
SAGINAW HB     SUNNY     79  61  53 SE7       29.98S
$$
MIZ043>046-050>051-056>058-064>065-071>073-077>080-170000-
SOUTHWEST LOWER MICHIGAN

CITY           SKY/WX    TMP DP  RH WIND       PRES   REMARKS
BATTLE CREEK   MOSUNNY   85  63  47 S9        29.96S
BENTON HARBOR  SUNNY     85  66  53 SE7       29.91F
BIG RAPIDS     MOSUNNY   81  60  48 SE8       29.95S
COLDWATER      PTSUNNY   83  63  50 SE7       29.96S
FREMONT        FAIR      83  62  48 S3        29.94S HAZE
HOLLAND        SUNNY     85  66  53 SE7       29.93F
GRAND RAPIDS   MOSUNNY   85  63  47 SE9       29.94S
IONIA          FAIR      83  61  46 S5        29.95S
KALAMAZOO      MOSUNNY   85  62  46 S5        29.94F
LUDINGTON      SUNNY     77  61  58 CALM      29.93F
MARSHALL       SUNNY     84  64  49 SE8       29.96S
MOUNT PLEASANT SUNNY     82  62  49 E8        29.97S
MUSKEGON       PTSUNNY   86  61  42 VRB5      29.92F
SOUTH HAVEN    MOSUNNY   85  67  54 SE5       29.92S
$$
MIZ016>042-170000-
NORTHERN LOWER MICHIGAN

CITY           SKY/WX    TMP DP  RH WIND       PRES   REMARKS
ALPENA         SUNNY     70  64  81 SE9       30.03F
BEAVER ISLAND  MOSUNNY   70  63  78 E10G16    29.98S
BELLAIRE       SUNNY     81  57  43 S8        29.95S
CADILLAC       MOSUNNY   80  62  53 S8        29.97F
CHARLEVOIX     MOSUNNY   79  63  57 NE9       29.98F
FRANKFORT      SUNNY     77  64  64 CALM      29.95F
GAYLORD        MOSUNNY   74  62  66 VRB6      30.00F
GRAYLING       MOSUNNY   76  59  55 SE8       30.00S
HARBOR SPRINGS PTSUNNY   76  62  61 E9        29.97S
HOUGHTON LAKE  MOSUNNY   76  62  62 E10G17    30.00F
OSCODA         MOSUNNY   70  62  75 E9        30.02F
PELLSTON       MOSUNNY   76  63  64 E12       29.99S
ROGERS CITY    SUNNY     72  62  69 E8        30.02F
TRAVERSE CITY  PTSUNNY   81  62  52 VRB3      29.93S
$$
MIZ007>008-015-170000-
EASTERN UPPER MICHIGAN

CITY           SKY/WX    TMP DP  RH WIND       PRES   REMARKS
KINROSS        SUNNY     71  61  70 E12       30.02F
MACKINAC ISLAN SUNNY     67  64  88 E12G20    30.00F
NEWBERRY       MOSUNNY   72  63  72 E7        29.98F
S. S. MARIE    SUNNY     73  60  63 VRB7      30.01F
MUNISING         N/A     68  65  90 NE5       29.96F
$$
MIZ004>006-011>014-085-170000-
CENTRAL UPPER MICHIGAN

CITY           SKY/WX    TMP DP  RH WIND       PRES   REMARKS
MANISTIQUE     CLOUDY    69  63  81 E9        29.97S
ESCANABA       SUNNY     70  64  81 SE8       29.95F
MENOMINEE      CLOUDY    71  62  73 E9        29.96S
SAWYER-GWINN   SUNNY     72  61  68 N5        29.97F
$$
MIZ001>003-009>011-084-170000-
WESTERN UPPER MICHIGAN

CITY           SKY/WX    TMP DP  RH WIND       PRES   REMARKS
IRON MOUNTAIN  CLOUDY    74  56  53 SE8       29.95S
HOUGHTON       CLOUDY    61  56  83 E12       29.95F
COPPER HARBOR    N/A     64  57  78 VRB3      29.97F
IRONWOOD       CLOUDY    75  59  57 SE8       29.91S
$$

ABBREVIATIONS USED IN REMARKS
   TC - TEMPERATURE IN CELSIUS
  WCI - WIND CHILL INDEX
   HX - HEAT INDEX
  VSB - VISIBILITY





USA.gov is the U.S. government's official web portal to all federal, state and local government web resources and services.